Regional Weather Roundup
Issued by NWS

Home | Current Version | Previous Version | Graphics & Text | Print | Product List | Glossary On
Versions: 1 2 3 4 5 6 7 8 9 10 11 12 13 14 15 16 17 18 19 20 21 22 23 24 25 26 27 28 29 30 31 32 33 34 35 36 37 38 39 40 41 42 43 44 45 46 47 48 49 50
000
ASUS43 KMPX 242310
RWRMN
WEATHER ROUNDUP FOR MINNESOTA
NATIONAL WEATHER SERVICE TWIN CITIES/CHANHASSEN MN
600 PM CDT MON JUL 24 2017


NOTE: "FAIR" INDICATES FEW OR NO CLOUDS BELOW 12,000 FEET WITH NO
SIGNIFICANT WEATHER AND/OR OBSTRUCTIONS TO VISIBILITY. N/A MEANS
CURRENT SKY AND/OR WEATHER CONDITIONS ARE NOT AVAILABLE.

MNZ060>063-068>070-250000-
   Twin Cities Metro

CITY           SKY/WX    TMP DP  RH WIND       PRES   REMARKS
TWIN CITIES    PTSUNNY   77  59  53 S9        30.03S
ST PAUL        FAIR      75  61  61 S12       30.03S
CRYSTAL        FAIR      76  57  51 S9        30.02R
BLAINE         PTSUNNY   79  61  53 SE8       30.03R
LAKEVILLE      FAIR      73  61  64 S3        30.04S
EDEN PRAIRIE   FAIR      76  61  59 S8        30.02S
SOUTH ST PAUL  FAIR      76  58  55 S7        30.03S
LAKE ELMO      FAIR      73  61  64 SE9       30.05S
$$
MNZ001>005-007-008-013>017-022>024-027-028-250000-
   Northwest Minnesota

CITY           SKY/WX    TMP DP  RH WIND       PRES   REMARKS
BEMIDJI        FAIR      74  57  54 SE12      29.99R
HALLOCK        FAIR      79  64  61 S20G26    29.84F
ROSEAU         FAIR      81  64  57 S20       29.90S
WARROAD        FAIR      81  64  57 S12G17    29.91F
THIEF RVR FALL FAIR      77  62  59 S14       29.92F
CROOKSTON      FAIR      79  63  57 S17       29.90S
FOSSTON        FAIR      75  63  64 SE8       29.96S
DETROIT LAKES  FAIR      73  61  64 S15       29.98S
MOORHEAD       FAIR      75  63  64 SE16G22   29.92S
PARK RAPIDS    FAIR      76  59  55 S14       30.00R
MAHNOMEN       FAIR      74  61  62 SE12G17   29.95S
$$
MNZ006-009>011-018-025>026-250000-
   North Central Minnesota

CITY           SKY/WX    TMP DP  RH WIND       PRES   REMARKS
BAUDETTE       FAIR      79  58  48 S14       29.93F
FLAG ISLAND    FAIR      75  63  64 S13       29.89F
INTL FALLS     FAIR      77  54  44 S8        29.96F
WASKISH        FAIR      79  61  53 S7        29.97R
BIG FORK       FAIR      77  57  50 S8        30.01R
LONGVILLE      FAIR      73  59  60 S9        30.02S
GRAND RAPIDS   FAIR      74  60  61 S7        30.04R
CRANE LAKE     FAIR      77  54  44 SE6       30.02S
ORR            FAIR      77  50  38 S8        29.99S
COOK           FAIR      75  54  46 S7        30.02S
WALKER         FAIR      73  59  61 SE10      30.00S
$$
MNZ012-019>021-037-250000-
   Northeast Minnesota

CITY           SKY/WX    TMP DP  RH WIND       PRES   REMARKS
DULUTH         FAIR      71  56  58 E9        30.05S
ELY            FAIR      75  46  35 S9        30.04R
HIBBING        FAIR      74  55  51 SE7       30.03S
EVELETH        FAIR      78  42  27 SE8       30.05S
DULUTH HARBOR  FAIR      64  61  88 NE5       30.05S
TWO HARBORS    FAIR      75  59  57 SE5       30.03S
SILVER BAY     FAIR      73  52  46 E3        30.04S
GRAND MARAIS     N/A     60  57  89 SW5       30.05F
G MARAIS ARPRT FAIR      68  48  49 S6        30.10S
$$
MNZ029>031-032-039>041-046>048-054>057-064-250000-
   West Central Minnesota

CITY           SKY/WX    TMP DP  RH WIND       PRES   REMARKS
FERGUS FALLS   FAIR      73  63  68 S13       29.94F
WHEATON        LGT RAIN  72  64  78 E13       29.92F
MORRIS         FAIR      75  63  64 SE12      29.96F
ALEXANDRIA     FAIR      74  61  63 S13       30.02R
ELBOW LAKE     FAIR      72  64  75 E12       29.98F
WADENA         FAIR      73  61  64 S10       30.00S
GLENWOOD       FAIR      75  61  60 SE8       30.03R
APPLETON       FAIR      79  63  57 SE8       29.95F
BENSON         FAIR      75  63  64 S8        30.00F
ORTONVILLE     FAIR      75  64  69 SE12G17   29.91F
MADISON        FAIR      81  64  57 SE13G18   29.95F
WILLMAR        FAIR      75  63  64 SE8       30.03R
$$
MNZ033>034-036-042>043-049>051-058-059-250000-
   Central Minnesota

CITY           SKY/WX    TMP DP  RH WIND       PRES   REMARKS
ST CLOUD       FAIR      77  61  57 SE12      30.01S
SAUK CENTRE    FAIR      74  61  63 S8        30.03R
PAYNESVILLE    FAIR      76  61  59 S8        30.03R
AITKIN         FAIR      73  59  60 S9        30.02S
PINE RIVER     FAIR      73  61  64 S9        30.04S
BRAINERD       FAIR      74  61  63 S7        30.02S
STAPLES        FAIR      73  61  64 S7        30.02R
LONG PRAIRIE   FAIR      72  61  68 E8        30.03R
LITTLE FALLS   FAIR      73  59  60 SE9       30.02S
LITCHFIELD     FAIR      79  63  57 SE7       30.01F
BUFFALO        FAIR      74  58  56 SE8       30.03F
MAPLE LAKE     FAIR      76  63  62 SE6       30.03F
HUTCHINSON     FAIR      76  64  64 SE9       30.02F
$$
MNZ037-044-045-052-053-250000-
   East Central Minnesota

CITY           SKY/WX    TMP DP  RH WIND       PRES   REMARKS
PRINCETON      FAIR      79  61  53 SE7       30.03S
MORA           FAIR      73  59  60 S7        30.05R
CAMBRIDGE      FAIR      77  61  57 SE5       30.02R
RUSH CITY      FAIR      75  60  58 S5        30.04R
MOOSE LAKE     FAIR      75  57  53 CALM      30.02R
HINCKLEY       FAIR      75  61  60 SE6       30.04R
CLOQUET        FAIR      73  55  53 E7        30.04S
MCGREGOR       FAIR      73  59  60 S9        30.04R
$$
MNZ071>073-080-081-089-090-097-098-250000-
   Southwest Minnesota

CITY           SKY/WX    TMP DP  RH WIND       PRES   REMARKS
MONTEVIDEO     FAIR      79  63  57 S8        29.99S
GRANITE FALLS  FAIR      80  64  58 SE9       30.01R
CANBY          FAIR      79  64  60 E12       29.96F
MARSHALL       FAIR      79  65  62 SE13      29.99R
REDWOOD FALLS  FAIR      78  62  57 S13       29.99S
OLIVIA         PTSUNNY   77  63  61 SE9       30.01R
PIPESTONE      FAIR      79  63  57 S9G18     29.98R
WINDOM         FAIR      79  61  53 SE12      30.00S
WORTHINGTON    FAIR      79  64  60 SE10      29.99F
JACKSON        FAIR      79  61  53 SE10      30.01S
TRACY          FAIR      79  66  64 SE12      29.99R
SLAYTON        FAIR      78  63  59 SE14      30.00R
$$
MNZ065>067-074>077-082>085-091>093-250000-
   South Central Minnesota

CITY           SKY/WX    TMP DP  RH WIND       PRES   REMARKS
MANKATO        FAIR      76  62  62 SE12      30.02F
NEW ULM        FAIR      75  63  64 SE9       30.00F
ST JAMES       FAIR      75  63  64 E12       30.01F
FAIRMONT       FAIR      77  63  61 SE13      30.01F
GLENCOE        FAIR      78  65  62 SE9       30.02S
FARIBAULT      PTSUNNY   75  61  60 SE8       30.05R
OWATONNA       CLOUDY    75  63  64 SE8       30.05R
WASECA         PTSUNNY   72  61  68 SE6       30.05S
ALBERT LEA     FAIR      73  61  64 S6        30.04S
$$
MNZ078>079-086>088-094>096-250000-
   Southeast Minnesota

CITY           SKY/WX    TMP DP  RH WIND       PRES   REMARKS
ROCHESTER      FAIR      72  61  68 SE9       30.06S
RED WING       FAIR      75  55  50 SE12      30.03F
STANTON        FAIR      76  61  58 S7        30.02S
DODGE CENTER   FAIR      75  61  60 SE10      30.06S
WINONA         FAIR      73  59  60 SE7       30.06S
AUSTIN         FAIR      73  61  64 S8        30.05S
PRESTON        FAIR      73  58  60 SE7       30.07F
$$
ABBREVIATIONS USED IN REMARKS
   TC - TEMPERATURES IN CELSIUS
  WCI - WIND CHILL INDEX
   HX - HEAT INDEX
  VSB - VISIBILITY
$$



USA.gov is the U.S. government's official web portal to all federal, state and local government web resources and services.